DL7MAP-13 Weather Reports


time (UTC)temp
C
wind
direction
speed
KPH
gust
KPH
rain 1hr
cm
rain 24hr
cm
rain mn
cm
humidity
%
barometer
mb
20260504222807 14 0.0 0.0 0.00 0.00 0.00 77 1006.8
20260504221307 15 0.0 0.0 0.00 0.00 0.00 76 1006.7
20260504215807 15 0.0 0.0 0.00 0.00 0.00 75 1006.6
20260504214307 16 0.0 0.0 0.00 0.00 0.00 74 1006.8
20260504212807 16 0.0 0.0 0.00 0.00 0.00 73 1006.9
20260504211307 16 0.0 0.0 0.00 0.00 0.00 72 1006.7
20260504205807 16 0.0 0.0 0.00 0.00 0.00 73 1006.9
20260504204307 16 0.0 0.0 0.00 0.00 0.00 73 1006.8
20260504202807 16 0.0 0.0 0.00 0.00 0.00 72 1006.8
20260504201307 16 0.0 0.0 0.00 0.00 0.00 71 1006.8
20260504195807 17 0.0 0.0 0.00 0.00 0.00 70 1006.7
20260504194307 17 0.0 0.0 0.00 0.00 0.00 69 1006.7
20260504192807 17 0.0 0.0 0.00 0.00 0.00 67 1006.6
20260504191307 18 0.0 0.0 0.00 0.00 0.00 65 1006.4
20260504185807 18 0.0 0.0 0.00 0.00 0.00 64 1006.5
20260504184307 19 0.0 0.0 0.00 0.00 0.00 61 1006.5
20260504182807 20 0.0 0.0 0.00 0.00 0.00 59 1006.3
20260504181307 20 0.0 0.0 0.00 0.00 0.00 57 1006.3
20260504175806 21 0.0 0.0 0.00 0.00 0.00 55 1006.0
20260504174307 21 0.0 0.0 0.00 0.00 0.00 54 1005.7
20260504172807 21 0.0 0.0 0.00 0.00 0.00 53 1006.4
20260504171307 22 0.0 0.0 0.00 0.00 0.00 51 1006.1
20260504141307 23 0.0 0.0 0.00 0.00 0.00 48 1007.1
20260504081307 20 0.0 0.0 0.00 0.00 0.00 58 1008.1
20260504045806 16 0.0 0.0 0.00 0.00 0.00 69 1007.1
20260504044307 16 0.0 0.0 0.00 0.00 0.00 68 1006.2
20260504042807 16 0.0 0.0 0.00 0.00 0.00 68 1006.3
20260504041306 16 0.0 0.0 0.00 0.00 0.00 67 1006.2
20260504035806 16 0.0 0.0 0.00 0.00 0.00 67 1006.2
20260504034307 16 0.0 0.0 0.00 0.00 0.00 66 1006.0
20260504032807 17 0.0 0.0 0.00 0.00 0.00 59 1006.0
20260504031306 17 0.0 0.0 0.00 0.00 0.00 53 1005.5
20260504025806 18 0.0 0.0 0.00 0.00 0.00 52 1006.6
20260504024307 18 0.0 0.0 0.00 0.00 0.00 52 1006.2
20260504022807 18 0.0 0.0 0.00 0.00 0.00 50 1006.5
20260504021307 18 0.0 0.0 0.00 0.00 0.00 51 1006.3
20260504015807 18 0.0 0.0 0.00 0.00 0.00 49 1006.8
20260504014307 19 0.0 0.0 0.00 0.00 0.00 48 1006.3
20260504012807 19 0.0 0.0 0.00 0.00 0.00 47 1005.7
20260504011307 20 0.0 0.0 0.00 0.00 0.00 46 1005.8
20260504005807 20 0.0 0.0 0.00 0.00 0.00 45 1005.4
20260504004306 20 0.0 0.0 0.00 0.00 0.00 45 1005.4
20260504002807 20 0.0 0.0 0.00 0.00 0.00 44 1005.3
20260504001307 20 0.0 0.0 0.00 0.00 0.00 42 1005.4
20260503235806 21 0.0 0.0 0.00 0.00 0.00 40 1005.6
20260503234307 21 0.0 0.0 0.00 0.00 0.00 39 1005.5
20260503232806 21 0.0 0.0 0.00 0.00 0.00 39 1005.6
20260503231307 22 0.0 0.0 0.00 0.00 0.00 38 1005.2
20260503225807 22 0.0 0.0 0.00 0.00 0.00 38 1005.3
20260503224307 21 0.0 0.0 0.00 0.00 0.00 41 1005.4